| time (UTC) | temp F | wind direction | speed MPH | gust MPH | rain 1hr in | rain 24hr in | rain mn in | humidity % | barometer mb |
| 20260504034537 | 46 | 0 | 0.0 | 3.0 | 0.00 | 0.00 | 0.00 | 75 | 1018.4 |
| 20260504033036 | 47 | 0 | 0.0 | 1.0 | 0.00 | 0.00 | 0.00 | 74 | 1018.5 |
| 20260504031537 | 48 | 0 | 0.0 | 1.0 | 0.00 | 0.00 | 0.00 | 71 | 1018.4 |
| 20260504030041 | 48 | 0 | 0.0 | 1.0 | 0.00 | 0.00 | 0.00 | 73 | 1018.4 |
| 20260504024539 | 49 | 0 | 0.0 | 1.0 | 0.00 | 0.00 | 0.00 | 71 | 1018.4 |
| 20260504023037 | 49 | 0 | 0.0 | 0.0 | 0.00 | 0.00 | 0.00 | 70 | 1018.2 |
| 20260504021540 | 50 | 0 | 0.0 | 0.0 | 0.00 | 0.00 | 0.00 | 69 | 1018.0 |
| 20260504020040 | 50 | 0 | 0.0 | 2.0 | 0.00 | 0.00 | 0.00 | 67 | 1017.7 |
| 20260504014551 | 51 | 0 | 0.0 | 2.0 | 0.00 | 0.00 | 0.00 | 66 | 1017.5 |
| 20260504013042 | 51 | 0 | 0.0 | 2.0 | 0.00 | 0.00 | 0.00 | 63 | 1017.5 |
| 20260504011540 | 51 | 0 | 0.0 | 0.0 | 0.00 | 0.00 | 0.00 | 66 | 1017.4 |
| 20260504010037 | 53 | 0 | 0.0 | 0.0 | 0.00 | 0.00 | 0.00 | 62 | 1017.2 |
| 20260504004550 | 53 | 0 | 0.0 | 0.0 | 0.00 | 0.00 | 0.00 | 61 | 1017.1 |
| 20260504003036 | 55 | 0 | 0.0 | 1.0 | 0.00 | 0.00 | 0.00 | 61 | 1017.2 |
| 20260504001539 | 57 | 0 | 0.0 | 1.0 | 0.00 | 0.00 | 0.00 | 52 | 1016.8 |
| 20260504000042 | 59 | 0 | 0.0 | 2.0 | 0.00 | 0.00 | 0.00 | 53 | 1016.8 |
| 20260503234540 | 60 | 0 | 0.0 | 2.0 | 0.00 | 0.00 | 0.00 | 48 | 1016.6 |
| 20260503233040 | 62 | 188 | 0.0 | 3.0 | 0.00 | 0.00 | 0.00 | 42 | 1016.8 |
| 20260503231535 | 64 | 61 | 1.0 | 4.0 | 0.00 | 0.00 | 0.00 | 33 | 1016.8 |
| 20260503230036 | 65 | 279 | 2.0 | 10.0 | 0.00 | 0.00 | 0.00 | 33 | 1016.8 |
| 20260503224537 | 66 | 153 | 1.0 | 7.0 | 0.00 | 0.00 | 0.00 | 35 | 1016.9 |
| 20260503223041 | 66 | 219 | 2.0 | 14.0 | 0.00 | 0.00 | 0.00 | 40 | 1016.8 |
| 20260503221536 | 67 | 0 | 1.0 | 7.0 | 0.00 | 0.00 | 0.00 | 36 | 1017.2 |
| 20260503220036 | 67 | 142 | 3.0 | 9.0 | 0.00 | 0.00 | 0.00 | 31 | 1017.2 |
| 20260503214535 | 67 | 221 | 4.0 | 9.0 | 0.00 | 0.00 | 0.00 | 36 | 1017.3 |
| 20260503213035 | 67 | 145 | 4.0 | 12.0 | 0.00 | 0.00 | 0.00 | 34 | 1017.4 |
| 20260503211541 | 67 | 237 | 2.0 | 12.0 | 0.00 | 0.00 | 0.00 | 34 | 1017.5 |
| 20260503210037 | 67 | 0 | 3.0 | 8.0 | 0.00 | 0.00 | 0.00 | 36 | 1017.6 |
| 20260503204542 | 67 | 276 | 3.0 | 14.0 | 0.00 | 0.00 | 0.00 | 35 | 1017.7 |
| 20260503203036 | 67 | 184 | 4.0 | 11.0 | 0.00 | 0.00 | 0.00 | 35 | 1018.1 |
| 20260503201538 | 66 | 234 | 3.0 | 12.0 | 0.00 | 0.00 | 0.00 | 35 | 1018.3 |
| 20260503200042 | 67 | 215 | 4.0 | 13.0 | 0.00 | 0.00 | 0.00 | 34 | 1018.5 |
| 20260503194542 | 67 | 53 | 4.0 | 13.0 | 0.00 | 0.00 | 0.00 | 33 | 1018.5 |
| 20260503193045 | 67 | 272 | 4.0 | 12.0 | 0.00 | 0.00 | 0.00 | 34 | 1018.9 |
| 20260503191539 | 66 | 242 | 2.0 | 11.0 | 0.00 | 0.00 | 0.00 | 34 | 1019.2 |
| 20260503190042 | 65 | 148 | 2.0 | 9.0 | 0.00 | 0.00 | 0.00 | 33 | 1019.4 |
| 20260503184537 | 66 | 257 | 3.0 | 8.0 | 0.00 | 0.00 | 0.00 | 34 | 1019.5 |
| 20260503183052 | 65 | 284 | 2.0 | 8.0 | 0.00 | 0.00 | 0.00 | 37 | 1019.7 |
| 20260503181607 | 64 | 185 | 4.0 | 14.0 | 0.00 | 0.00 | 0.00 | 35 | 1019.7 |
| 20260503180041 | 63 | 165 | 4.0 | 11.0 | 0.00 | 0.00 | 0.00 | 37 | 1019.9 |
| 20260503174542 | 63 | 131 | 2.0 | 7.0 | 0.00 | 0.00 | 0.00 | 35 | 1020.1 |
| 20260503173035 | 63 | 153 | 1.0 | 8.0 | 0.00 | 0.00 | 0.00 | 35 | 1020.2 |
| 20260503171547 | 62 | 210 | 3.0 | 7.0 | 0.00 | 0.00 | 0.00 | 36 | 1020.4 |
| 20260503081538 | 36 | 0 | 0.0 | 0.0 | 0.00 | 0.00 | 0.00 | 90 | 1018.0 |
| 20260503071540 | 38 | 0 | 0.0 | 1.0 | 0.00 | 0.00 | 0.00 | 90 | 1017.9 |
| 20260503054543 | 38 | 0 | 0.0 | 0.0 | 0.00 | 0.00 | 0.00 | 89 | 1017.7 |
| 20260503053036 | 38 | 0 | 0.0 | 0.0 | 0.00 | 0.00 | 0.00 | 89 | 1017.7 |
| 20260503051536 | 38 | 0 | 0.0 | 1.0 | 0.00 | 0.00 | 0.00 | 88 | 1017.7 |
| 20260503050035 | 39 | 0 | 0.0 | 1.0 | 0.00 | 0.00 | 0.00 | 88 | 1017.8 |
| 20260503044542 | 39 | 360 | 1.0 | 3.0 | 0.00 | 0.00 | 0.00 | 88 | 1017.6 |
| 20260503043040 | 39 | 360 | 0.0 | 2.0 | 0.00 | 0.00 | 0.00 | 88 | 1017.5 |
| 20260503041540 | 40 | 0 | 0.0 | 2.0 | 0.00 | 0.00 | 0.00 | 87 | 1017.6 |
| 20260503040038 | 40 | 0 | 0.0 | 1.0 | 0.00 | 0.00 | 0.00 | 86 | 1017.4 |